Latest Weather Observations for Tuggeranong

IDN60901

Issued at 11:11 am EST Sunday 24 September 2017 (issued every 10 minutes, with the page automatically refreshed every 10 minutes)

About weather observations | Map of Canberra area stations | Latest observations for Canberra area | Other Formats
Station Details ID: 070339 Name: TUGGERANONG (ISABELLA PLAINS) AWS Lat: -35.42 Lon: 149.09 Height: 586.7 m
Data from the previous 72 hours. | See also: Recent months at Tuggeranong
Date/Time
EST
Temp
°C
App
Temp
°C
Dew
Point
°C
Rel
Hum
%
Delta-T
°C
Wind Press
QNH
hPa
Press
MSL
hPa
Rain since
9am
mm
Dir  Spd
km/h
Gust
km/h
Spd
kts
Gust
kts
24/11:00am 18.3 12.5 0.0 29 8.3 NW 20 30 11 16 1004.9 1004.6 0.0
24/10:30am 16.7 11.5 3.4 41 6.3 NNW 20 33 11 18 1005.1 1004.8 0.0
24/10:00am 15.9 11.0 4.0 45 5.7 NNW 19 33 10 18 1005.7 1005.4 0.0
24/09:30am 15.1 10.7 4.5 49 5.1 NNW 17 30 9 16 1006.1 1005.8 0.0
24/09:00am 14.6 9.4 3.7 48 5.2 NNW 20 30 11 16 1006.8 1006.5 0.0
24/08:30am 14.5 9.7 2.7 45 5.4 NW 17 26 9 14 1006.6 1006.3 0.0
24/08:00am 14.2 9.9 3.1 47 5.2 NNW 15 26 8 14 1006.3 1006.1 0.0
24/07:30am 13.8 9.2 3.6 50 4.8 NNW 17 28 9 15 1006.2 1005.9 0.0
24/07:00am 13.5 9.7 4.1 53 4.4 NNW 13 22 7 12 1005.2 1004.9 0.0
24/06:30am 13.4 10.0 3.8 52 4.5 NNW 11 17 6 9 1004.3 1004.0 0.0
24/06:00am 14.0 10.1 3.2 48 5.0 NNW 13 20 7 11 1004.2 1003.9 0.0
24/05:30am 14.6 10.5 2.2 43 5.7 NW 13 19 7 10 1004.3 1004.0 0.0
24/05:00am 15.5 10.7 0.1 35 6.8 NW 15 20 8 11 1004.3 1004.0 0.0
24/04:30am 16.4 11.7 -1.7 29 7.7 NW 13 20 7 11 1003.8 1003.5 0.0
24/04:00am 17.3 12.1 -2.9 25 8.5 NW 15 20 8 11 1003.2 1002.8 0.0
24/03:30am 18.4 12.9 -2.0 25 8.8 WNW 17 28 9 15 1002.6 1002.3 0.0
24/03:00am 18.3 14.3 2.6 35 7.5 W 13 20 7 11 1001.9 1001.6 0.0
24/02:30am 18.2 15.0 5.1 42 6.5 NW 11 19 6 10 1001.5 1001.1 0.0
24/02:00am 19.4 16.3 5.5 40 7.1 NNW 11 22 6 12 1001.3 1000.9 0.0
24/01:30am 20.7 17.0 4.3 34 8.2 N 13 19 7 10 1000.7 1000.4 0.0
24/01:00am 20.8 17.6 3.1 31 8.7 NNW 9 15 5 8 1000.8 1000.5 0.0
24/12:30am 21.6 18.3 2.3 28 9.3 N 9 13 5 7 1000.6 1000.3 0.0
24/12:00am 22.5 18.5 2.6 27 9.8 N 13 22 7 12 1000.3 999.9 0.0
 
Date/Time
EST
Temp
°C
App
Temp
°C
Dew
Point
°C
Rel
Hum
%
Delta-T
°C
Wind Press
QNH
hPa
Press
MSL
hPa
Rain since
9am
mm
Dir  Spd
km/h
Gust
km/h
Spd
kts
Gust
kts
23/11:30pm 22.6 18.9 2.1 26 9.9 N 11 15 6 8 1000.4 1000.1 0.0
23/11:00pm 22.5 18.8 2.1 26 9.9 N 11 17 6 9 1000.3 999.9 0.0
23/10:30pm 22.2 18.1 2.3 27 9.6 N 13 15 7 8 1000.4 1000.1 0.0
23/10:00pm 18.3 16.4 2.6 35 7.5 NW 2 9 1 5 1000.4 1000.1 0.0
23/09:30pm 21.7 18.7 1.9 27 9.5 N 7 11 4 6 1000.3 999.9 0.0
23/09:00pm 22.3 18.7 2.9 28 9.6 N 11 19 6 10 1000.9 1000.6 0.0
23/08:30pm 20.9 19.1 3.2 31 8.7 N 2 13 1 7 1001.0 1000.7 0.0
23/08:00pm 20.8 17.2 3.1 31 8.7 SSW 11 13 6 7 1000.9 1000.6 0.0
23/07:30pm 21.8 19.0 3.0 29 9.2 NNE 7 11 4 6 1000.5 1000.2 0.0
23/07:00pm 22.6 21.0 2.7 27 9.8 CALM 0 0 0 0 1000.7 1000.4 0.0
23/06:30pm 24.4 20.6 1.9 23 11.0 NW 11 20 6 11 1000.6 1000.3 0.0
23/06:00pm 24.9 20.6 3.0 24 11.0 NNW 15 32 8 17 1000.6 1000.3 0.0
23/05:30pm 25.6 21.2 2.9 23 11.4 NNW 15 22 8 12 1001.0 1000.7 0.0
23/05:00pm 26.1 22.6 3.4 23 11.6 NNW 11 20 6 11 1000.8 1000.5 0.0
23/04:30pm 26.7 23.0 2.6 21 12.1 NW 11 20 6 11 1001.2 1000.8 0.0
23/04:00pm 27.8 22.4 1.3 18 13.2 NW 19 30 10 16 1001.4 1001.0 0.0
23/03:30pm 28.8 22.7 0.5 16 13.9 NW 22 37 12 20 1001.6 1001.2 0.0
23/03:00pm 29.0 22.6 0.7 16 14.0 NW 24 37 13 20 1001.8 1001.4 0.0
23/02:30pm 28.9 23.8 3.0 19 13.3 NNW 19 35 10 19 1002.2 1001.9 0.0
23/02:00pm 27.9 22.7 2.2 19 13.0 NNW 19 30 10 16 1002.8 1002.5 0.0
23/01:30pm 27.2 20.9 1.6 19 12.7 NW 24 41 13 22 1003.4 1003.1 0.0
23/01:00pm 26.5 20.5 1.0 19 12.5 NNW 22 39 12 21 1004.1 1003.8 0.0
23/12:30pm 26.5 20.2 -1.3 16 13.0 NNW 22 39 12 21 1004.8 1004.4 0.0
23/12:00pm 26.6 20.8 -0.4 17 12.9 NNW 20 33 11 18 1005.4 1005.1 0.0
23/11:30am 27.6 23.1 1.9 19 12.8 NW 15 30 8 16 1005.9 1005.6 0.0
23/11:00am 25.6 20.6 -1.2 17 12.5 N 15 32 8 17 1006.4 1006.2 0.0
23/10:30am 24.1 19.1 1.1 22 11.1 NW 17 24 9 13 1008.1 1007.9 0.0
23/10:00am 22.4 18.2 1.4 25 10.0 N 13 17 7 9 1009.1 1008.8 0.0
23/09:30am 18.9 15.7 3.1 35 7.6 WNW 9 11 5 6 1009.8 1009.6 0.0
23/09:00am 18.2 15.6 4.0 39 6.9 NW 7 11 4 6 1010.0 1009.8 0.0
23/08:30am 15.3 13.2 3.8 46 5.5 ENE 4 9 2 5 1010.0 1009.8 0.0
23/08:00am 10.3 8.0 2.7 59 3.4 N 4 7 2 4 1010.7 1010.5 0.0
23/07:30am 8.1 5.4 2.4 67 2.5 E 6 11 3 6 1010.3 1010.0 0.0
23/07:00am 5.0 2.2 1.8 80 1.3 WSW 6 11 3 6 1011.1 1010.9 0.0
23/06:30am 2.7 0.5 0.8 87 0.7 NNE 2 7 1 4 1010.0 1009.8 0.0
23/06:00am 1.8 -0.6 0.0 88 0.7 E 2 7 1 4 1010.0 1009.8 0.0
23/05:30am 1.3 -0.8 -0.8 86 0.8 CALM 0 0 0 0 1010.4 1010.1 0.0
23/05:00am 2.3 0.4 0.5 88 0.7 CALM 0 0 0 0 1010.4 1010.1 0.0
23/04:30am 1.9 -0.2 -0.7 83 1.0 CALM 0 0 0 0 1010.7 1010.5 0.0
23/04:00am 2.6 0.6 -0.2 82 1.1 CALM 0 0 0 0 1011.0 1010.8 0.0
23/03:30am 3.3 1.4 0.5 82 1.1 CALM 0 0 0 0 1011.1 1010.9 0.0
23/03:00am 3.4 1.5 0.5 81 1.1 CALM 0 0 0 0 1011.4 1011.2 0.0
23/02:30am 3.5 1.6 0.4 80 1.2 CALM 0 0 0 0 1011.7 1011.5 0.0
23/02:00am 3.7 1.7 -0.1 76 1.5 CALM 0 0 0 0 1012.1 1011.8 0.0
23/01:30am 4.4 2.6 1.1 79 1.3 CALM 0 0 0 0 1012.4 1012.2 0.0
23/01:00am 4.3 2.4 0.5 76 1.5 CALM 0 0 0 0 1012.7 1012.5 0.0
23/12:30am 5.3 3.5 1.1 74 1.7 CALM 0 0 0 0 1012.9 1012.7 0.0
23/12:00am 5.4 3.5 0.6 71 1.9 CALM 0 0 0 0 1013.0 1012.8 0.0
 
Date/Time
EST
Temp
°C
App
Temp
°C
Dew
Point
°C
Rel
Hum
%
Delta-T
°C
Wind Press
QNH
hPa
Press
MSL
hPa
Rain since
9am
mm
Dir  Spd
km/h
Gust
km/h
Spd
kts
Gust
kts
22/11:30pm 6.3 4.5 1.4 71 2.0 CALM 0 0 0 0 1013.0 1012.8 0.0
22/11:00pm 7.0 5.3 1.9 70 2.2 CALM 0 0 0 0 1013.1 1012.9 0.0
22/10:30pm 7.7 5.9 1.3 64 2.7 CALM 0 0 0 0 1013.3 1013.1 0.0
22/10:00pm 9.0 7.3 1.9 61 3.1 CALM 0 0 0 0 1013.4 1013.2 0.0
22/09:30pm 9.2 7.4 1.4 58 3.3 CALM 0 0 0 0 1013.5 1013.3 0.0
22/09:00pm 10.8 9.2 2.4 56 3.7 CALM 0 0 0 0 1013.5 1013.3 0.0
22/08:30pm 11.6 9.9 1.8 51 4.3 CALM 0 0 0 0 1013.5 1013.3 0.0
22/08:00pm 12.4 10.5 2.6 51 4.4 NE 2 6 1 3 1013.2 1013.0 0.0
22/07:30pm 13.6 11.9 1.6 44 5.4 CALM 0 0 0 0 1013.1 1012.9 0.0
22/07:00pm 15.1 13.5 2.6 43 5.8 CALM 0 0 0 0 1012.9 1012.7 0.0
22/06:30pm 17.9 15.7 1.0 32 7.7 NE 2 6 1 3 1012.7 1012.5 0.0
22/06:00pm 20.4 16.8 0.3 26 9.3 N 9 13 5 7 1012.5 1012.3 0.0
22/05:30pm 21.6 17.6 0.2 24 9.9 N 11 17 6 9 1012.4 1012.2 0.0
22/05:00pm 22.4 17.7 0.9 24 10.2 NNW 15 22 8 12 1012.1 1011.8 0.0
22/04:30pm 23.5 18.4 0.6 22 10.9 NNW 17 26 9 14 1011.8 1011.6 0.0
22/04:00pm 24.1 19.3 0.4 21 11.3 N 15 22 8 12 1011.7 1011.5 0.0
22/03:30pm 24.2 18.8 1.2 22 11.1 N 19 30 10 16 1011.7 1011.5 0.0
22/03:00pm 24.3 18.7 1.2 22 11.2 N 20 30 11 16 1011.7 1011.5 0.0
22/02:30pm 24.1 18.4 0.4 21 11.2 N 20 35 11 19 1011.7 1011.5 0.0
22/02:00pm 24.7 19.8 2.2 23 11.1 NNW 17 26 9 14 1011.9 1011.7 0.0
22/01:30pm 23.4 17.3 -3.8 16 11.9 NW 19 30 10 16 1012.3 1012.1 0.0
22/01:00pm 24.2 18.8 1.2 22 11.1 NNW 19 28 10 15 1012.6 1012.4 0.0
22/12:30pm 23.5 18.8 1.2 23 10.7 NNW 15 28 8 15 1012.9 1012.7 0.0
22/12:00pm 23.0 18.4 1.4 24 10.4 NNW 15 26 8 14 1013.4 1013.2 0.0
22/11:30am 21.9 17.2 1.0 25 9.9 N 15 28 8 15 1014.0 1013.8 0.0
22/11:00am 20.8 16.5 1.1 27 9.2 N 13 19 7 10 1014.2 1014.0 0.0
22/10:30am 19.1 15.8 2.5 33 7.9 N 9 13 5 7 1014.6 1014.4 0.0
22/10:00am 17.3 14.1 2.9 38 6.8 NNE 9 15 5 8 1014.9 1014.7 0.0
22/09:30am 15.0 13.6 3.8 47 5.3 CALM 0 0 0 0 1015.3 1015.2 0.0
22/09:00am 12.7 11.4 3.9 55 4.1 CALM 0 0 0 0 1015.7 1015.5 0.0
22/08:30am 10.4 9.1 4.1 65 2.9 CALM 0 0 0 0 1015.9 1015.7 0.0
22/08:00am 8.4 7.0 3.8 73 2.1 CALM 0 0 0 0 1016.0 1015.8 0.0
22/07:30am 7.0 5.6 3.4 78 1.6 CALM 0 0 0 0 1015.7 1015.5 0.0
22/07:00am 5.4 3.5 2.9 84 1.1 NNW 2 7 1 4 1015.4 1015.3 0.0
22/06:30am 5.0 3.4 2.7 85 1.0 CALM 0 6 0 3 1015.0 1014.9 0.0
22/06:00am 4.1 2.0 2.0 86 0.9 NE 2 7 1 4 1015.2 1015.1 0.0
22/05:30am 3.6 1.9 1.8 88 0.7 CALM 0 0 0 0 1014.9 1014.7 0.0
22/05:00am 3.4 1.6 1.3 86 0.8 CALM 0 0 0 0 1014.8 1014.6 0.0
22/04:30am 4.0 0.6 2.0 87 0.8 ENE 9 11 5 6 1014.4 1014.2 0.0
22/04:00am 3.7 0.8 1.3 84 1.0 E 6 7 3 4 1014.5 1014.3 0.0
22/03:30am 3.5 1.7 1.1 84 1.0 CALM 0 0 0 0 1014.6 1014.4 0.0
22/03:00am 4.2 2.1 1.4 82 1.1 ENE 2 6 1 3 1014.6 1014.4 0.0
22/02:30am 4.5 2.7 1.4 80 1.3 CALM 0 0 0 0 1014.5 1014.3 0.0
22/02:00am 5.2 3.5 1.7 78 1.4 CALM 0 0 0 0 1014.8 1014.6 0.0
22/01:30am 5.6 3.8 1.5 75 1.7 CALM 0 0 0 0 1015.1 1015.0 0.0
22/01:00am 6.2 4.1 1.7 73 1.9 ESE 2 6 1 3 1015.1 1015.0 0.0
22/12:30am 6.7 3.9 2.2 73 1.9 E 6 9 3 5 1015.4 1015.3 0.0
22/12:00am 7.1 4.2 2.6 73 1.9 ENE 7 9 4 5 1015.2 1015.1 0.0
 
Date/Time
EST
Temp
°C
App
Temp
°C
Dew
Point
°C
Rel
Hum
%
Delta-T
°C
Wind Press
QNH
hPa
Press
MSL
hPa
Rain since
9am
mm
Dir  Spd
km/h
Gust
km/h
Spd
kts
Gust
kts
21/11:30pm 7.0 4.0 1.7 69 2.2 E 7 7 4 4 1015.2 1015.1 0.0
21/11:00pm 8.3 5.4 2.5 67 2.5 ENE 7 9 4 5 1015.3 1015.2 0.0
21/10:30pm 8.3 5.3 2.1 65 2.7 E 7 9 4 5 1015.4 1015.3 0.0
21/10:00pm 8.9 6.5 2.0 62 3.0 E 4 9 2 5 1015.4 1015.3 0.0
21/09:30pm 10.2 7.2 2.1 57 3.6 ESE 7 9 4 5 1015.3 1015.2 0.0
21/09:00pm 11.1 8.1 2.2 54 3.9 ENE 7 11 4 6 1015.2 1015.1 0.0
21/08:30pm 12.1 8.7 2.0 50 4.5 E 9 13 5 7 1015.2 1015.1 0.0
21/08:00pm 13.7 10.7 2.0 45 5.3 N 7 11 4 6 1015.2 1015.1 0.0
21/07:30pm 14.3 10.9 1.9 43 5.6 N 9 11 5 6 1015.2 1015.1 0.0
21/07:00pm 15.1 11.2 1.3 39 6.2 N 11 15 6 8 1015.0 1014.9 0.0
21/06:30pm 16.0 12.5 1.0 36 6.8 N 9 15 5 8 1014.6 1014.4 0.0
21/06:00pm 17.1 12.4 1.1 34 7.3 N 15 30 8 16 1014.2 1014.0 0.0
21/05:30pm 18.2 12.7 0.8 31 7.9 N 19 30 10 16 1013.7 1013.6 0.0
21/05:00pm 19.3 13.9 1.3 30 8.4 N 19 30 10 16 1013.5 1013.3 0.0
21/04:30pm 19.8 14.2 1.3 29 8.6 N 20 32 11 17 1013.3 1013.1 0.0
21/04:00pm 21.4 16.5 1.7 27 9.4 N 17 26 9 14 1013.2 1013.0 0.0
21/03:30pm 21.4 16.3 0.6 25 9.7 NNW 17 30 9 16 1013.2 1013.0 0.0
21/03:00pm 22.6 17.4 -2.9 18 11.2 NNW 15 24 8 13 1013.2 1013.0 0.0
21/02:30pm 22.0 17.0 1.6 26 9.7 N 17 22 9 12 1013.2 1013.0 0.0
21/02:00pm 21.8 16.5 2.0 27 9.5 NNW 19 28 10 15 1013.5 1013.3 0.0
21/01:30pm 21.3 16.6 3.0 30 8.9 NNW 17 28 9 15 1013.9 1013.7 0.0
21/01:00pm 21.1 16.6 1.9 28 9.2 NNW 15 22 8 12 1014.1 1013.9 0.0
21/12:30pm 20.4 15.8 1.8 29 8.8 NW 15 24 8 13 1014.5 1014.3 0.0
21/12:00pm 19.8 16.1 2.2 31 8.4 N 11 17 6 9 1015.0 1014.9 0.0
21/11:30am 18.1 14.4 4.7 41 6.6 N 13 17 7 9 1015.5 1015.4 0.0

Latest Capital City Observations: Canberra | Sydney | Melbourne | Brisbane | Adelaide | Perth | Hobart | Darwin

Other Formats:

Comma delimited format used in spreadsheet applications
http://www.bom.gov.au/fwo/IDN60903/IDN60903.94925.axf

JavaScript Object Notation format (JSON) in row-major order
http://www.bom.gov.au/fwo/IDN60903/IDN60903.94925.json